This is the latest recevied weather packets stored in our database for station/object OK2ZAW-19. If no packets are shown the sender has not sent any weather packets the latest 10 day(s).
| Time | Temp. | Humidity | Pressure | Rain* | Wind** | Luminosity | Snow |
|---|---|---|---|---|---|---|---|
| 1777879388 | 12.22° C | 85% | 1015.2 hPa | - | - | 337 W/m² | - |
| 1777879077 | 12.22° C | 84% | 1015.2 hPa | - | - | 337 W/m² | - |
| 1777878767 | 12.22° C | 84% | 1015 hPa | - | - | 337 W/m² | - |
| 1777878146 | 11.67° C | 84% | 1015 hPa | - | - | 337 W/m² | - |
| 1777877835 | 11.67° C | 86% | 1015 hPa | - | - | 337 W/m² | - |
| 1777877525 | 11.11° C | 89% | 1015 hPa | - | - | 337 W/m² | - |
| 1777877214 | 11.11° C | 89% | 1014.9 hPa | - | - | 337 W/m² | - |
| 1777876904 | 11.11° C | 91% | 1014.9 hPa | - | - | 337 W/m² | - |
| 1777876593 | 10.56° C | 93% | 1014.8 hPa | - | - | 337 W/m² | - |
| 1777875972 | 10° C | 93% | 1014.8 hPa | - | - | 337 W/m² | - |
| 1777875662 | 10° C | 93% | 1014.7 hPa | - | - | 337 W/m² | - |
| 1777875351 | 9.44° C | 92% | 1014.7 hPa | - | - | 337 W/m² | - |
| 1777874420 | 9.44° C | 92% | 1014.7 hPa | - | - | 337 W/m² | - |
| 1777874110 | 8.89° C | 91% | 1014.7 hPa | - | - | 337 W/m² | - |
| 1777873800 | 8.89° C | 91% | 1014.7 hPa | - | - | 337 W/m² | - |
| 1777873490 | 8.89° C | 90% | 1014.7 hPa | - | - | 337 W/m² | - |
| 1777873179 | 8.89° C | 89% | 1014.8 hPa | - | - | 337 W/m² | - |
| 1777872869 | 8.89° C | 87% | 1014.7 hPa | - | - | 337 W/m² | - |
| 1777872559 | 8.89° C | 88% | 1014.7 hPa | - | - | 337 W/m² | - |
| 1777872249 | 8.89° C | 88% | 1014.8 hPa | - | - | 337 W/m² | - |
| 1777871318 | 8.89° C | 86% | 1014.6 hPa | - | - | 337 W/m² | - |
| 1777871007 | 8.89° C | 86% | 1014.7 hPa | - | - | 337 W/m² | - |
| 1777870387 | 8.89° C | 85% | 1014.6 hPa | - | - | 337 W/m² | - |
| 1777869766 | 8.33° C | 83% | 1014.5 hPa | - | - | 337 W/m² | - |
| 1777869456 | 8.33° C | 82% | 1014.5 hPa | - | - | 337 W/m² | - |
* Rain since midnight (hover to see other rain measurements)
** Current wind speed in m/s (hover to see current wind gust speed)